Year,Month,Day,Hour,Minute,Value (Times are PST for barometer in hPa)
2013,09,28,00,00,1007.17
2013,09,28,00,01,1007.15
2013,09,28,00,02,1007.15
2013,09,28,00,03,1007.15
2013,09,28,00,04,1007.15
2013,09,28,00,05,1007.15
2013,09,28,00,06,1007.15
2013,09,28,00,07,1007.15
2013,09,28,00,08,1007.15
2013,09,28,00,09,1007.15
2013,09,28,00,10,1007.15
2013,09,28,00,11,1007.15
2013,09,28,00,12,1007.15
2013,09,28,00,13,1007.15
2013,09,28,00,14,1007.15
2013,09,28,00,15,1007.15
2013,09,28,00,16,1007.15
2013,09,28,00,17,1007.15
2013,09,28,00,18,1007.15
2013,09,28,00,19,1007.15
2013,09,28,00,20,1007.15
2013,09,28,00,21,1007.15
2013,09,28,00,22,1007.15
2013,09,28,00,23,1007.15
2013,09,28,00,24,1007.15
2013,09,28,00,25,1007.15
2013,09,28,00,26,1007.15
2013,09,28,00,27,1007.15
2013,09,28,00,28,1007.15
2013,09,28,00,29,1007.15
2013,09,28,00,30,1007.04
2013,09,28,00,31,1007.04
2013,09,28,00,32,1007.04
2013,09,28,00,33,1007.04
2013,09,28,00,34,1007.04
2013,09,28,00,35,1007.04
2013,09,28,00,36,1007.04
2013,09,28,00,37,1007.04
2013,09,28,00,38,1007.04
2013,09,28,00,39,1007.04
2013,09,28,00,40,1007.04
2013,09,28,00,41,1007.04
2013,09,28,00,42,1007.04
2013,09,28,00,43,1007.04
2013,09,28,00,44,1007.04
2013,09,28,00,45,1006.67
2013,09,28,00,46,1006.67
2013,09,28,00,47,1006.67
2013,09,28,00,48,1006.67
2013,09,28,00,49,1006.67
2013,09,28,00,50,1006.67
2013,09,28,00,51,1006.67
2013,09,28,00,52,1006.67
2013,09,28,00,53,1006.67
2013,09,28,00,54,1006.67
2013,09,28,00,55,1006.67
2013,09,28,00,56,1006.67
2013,09,28,00,57,1006.67
2013,09,28,00,58,1006.67
2013,09,28,00,59,1006.67
2013,09,28,01,00,1006.30
2013,09,28,01,01,1006.30
2013,09,28,01,02,1006.30
2013,09,28,01,03,1006.30
2013,09,28,01,04,1006.30
2013,09,28,01,05,1006.30
2013,09,28,01,06,1006.30
2013,09,28,01,07,1006.30
2013,09,28,01,08,1006.30
2013,09,28,01,09,1006.30
2013,09,28,01,10,1006.30
2013,09,28,01,11,1006.30
2013,09,28,01,12,1006.30
2013,09,28,01,13,1006.30
2013,09,28,01,14,1006.30
2013,09,28,01,15,1006.23
2013,09,28,01,16,1006.23
2013,09,28,01,17,1006.23
2013,09,28,01,18,1006.23
2013,09,28,01,19,1006.23
2013,09,28,01,20,1006.23
2013,09,28,01,21,1006.23
2013,09,28,01,22,1006.23
2013,09,28,01,23,1006.23
2013,09,28,01,24,1006.23
2013,09,28,01,25,1006.23
2013,09,28,01,26,1006.23
2013,09,28,01,27,1006.23
2013,09,28,01,28,1006.23
2013,09,28,01,29,1006.23
2013,09,28,01,30,1006.06
2013,09,28,01,31,1006.06
2013,09,28,01,32,1006.06
2013,09,28,01,33,1006.06
2013,09,28,01,34,1006.06
2013,09,28,01,35,1006.06
2013,09,28,01,36,1006.06
2013,09,28,01,37,1006.06
2013,09,28,01,38,1006.06
2013,09,28,01,39,1006.06
2013,09,28,01,40,1006.06
2013,09,28,01,41,1006.06
2013,09,28,01,42,1006.06
2013,09,28,01,43,1006.06
2013,09,28,01,44,1006.06
2013,09,28,01,45,1005.86
2013,09,28,01,46,1005.86
2013,09,28,01,47,1005.86
2013,09,28,01,48,1005.86
2013,09,28,01,49,1005.86
2013,09,28,01,50,1005.86
2013,09,28,01,51,1005.86
2013,09,28,01,52,1005.86
2013,09,28,01,53,1005.86
2013,09,28,01,54,1005.86
2013,09,28,01,55,1005.86
2013,09,28,01,56,1005.86
2013,09,28,01,57,1005.86
2013,09,28,01,58,1005.86
2013,09,28,01,59,1005.86
2013,09,28,02,00,1005.59
2013,09,28,02,01,1005.59
2013,09,28,02,02,1005.59
2013,09,28,02,03,1005.59
2013,09,28,02,04,1005.59
2013,09,28,02,05,1005.59
2013,09,28,02,06,1005.59
2013,09,28,02,07,1005.59
2013,09,28,02,08,1005.59
2013,09,28,02,09,1005.59
2013,09,28,02,10,1005.59
2013,09,28,02,11,1005.59
2013,09,28,02,12,1005.59
2013,09,28,02,13,1005.59
2013,09,28,02,14,1005.59
2013,09,28,02,15,1005.35
2013,09,28,02,16,1005.35
2013,09,28,02,17,1005.35
2013,09,28,02,18,1005.35
2013,09,28,02,19,1005.35
2013,09,28,02,20,1005.35
2013,09,28,02,21,1005.35
2013,09,28,02,22,1005.35
2013,09,28,02,23,1005.35
2013,09,28,02,24,1005.35
2013,09,28,02,25,1005.35
2013,09,28,02,26,1005.35
2013,09,28,02,27,1005.35
2013,09,28,02,28,1005.35
2013,09,28,02,29,1005.35
2013,09,28,02,30,1005.11
2013,09,28,02,31,1005.11
2013,09,28,02,32,1005.11
2013,09,28,02,33,1005.11
2013,09,28,02,34,1005.11
2013,09,28,02,35,1005.11
2013,09,28,02,36,1005.11
2013,09,28,02,37,1005.11
2013,09,28,02,38,1005.11
2013,09,28,02,39,1005.11
2013,09,28,02,40,1005.11
2013,09,28,02,41,1005.11
2013,09,28,02,42,1005.11
2013,09,28,02,43,1005.11
2013,09,28,02,44,1005.11
2013,09,28,02,45,1004.78
2013,09,28,02,46,1004.78
2013,09,28,02,47,1004.78
2013,09,28,02,48,1004.78
2013,09,28,02,49,1004.78
2013,09,28,02,50,1004.78
2013,09,28,02,51,1004.78
2013,09,28,02,52,1004.78
2013,09,28,02,53,1004.78
2013,09,28,02,54,1004.78
2013,09,28,02,55,1004.78
2013,09,28,02,56,1004.78
2013,09,28,02,57,1004.78
2013,09,28,02,58,1004.78
2013,09,28,02,59,1004.75
2013,09,28,03,00,1004.17
2013,09,28,03,01,1004.17
2013,09,28,03,02,1004.17
2013,09,28,03,03,1004.17
2013,09,28,03,04,1004.17
2013,09,28,03,05,1004.17
2013,09,28,03,06,1004.17
2013,09,28,03,07,1004.17
2013,09,28,03,08,1004.17
2013,09,28,03,09,1004.17
2013,09,28,03,10,1004.17
2013,09,28,03,11,1004.17
2013,09,28,03,12,1004.17
2013,09,28,03,13,1004.17
2013,09,28,03,14,1004.17
2013,09,28,03,15,1003.79
2013,09,28,03,16,1003.79
2013,09,28,03,17,1003.79
2013,09,28,03,18,1003.79
2013,09,28,03,19,1003.79
2013,09,28,03,20,1003.79
2013,09,28,03,21,1003.79
2013,09,28,03,22,1003.79
2013,09,28,03,23,1003.79
2013,09,28,03,24,1003.79
2013,09,28,03,25,1003.79
2013,09,28,03,26,1003.79
2013,09,28,03,27,1003.79
2013,09,28,03,28,1003.79
2013,09,28,03,29,1003.79
2013,09,28,03,30,1003.46
2013,09,28,03,31,1003.46
2013,09,28,03,32,1003.46
2013,09,28,03,33,1003.46
2013,09,28,03,34,1003.46
2013,09,28,03,35,1003.46
2013,09,28,03,36,1003.46
2013,09,28,03,37,1003.46
2013,09,28,03,38,1003.46
2013,09,28,03,39,1003.46
2013,09,28,03,40,1003.46
2013,09,28,03,41,1003.46
2013,09,28,03,42,1003.46
2013,09,28,03,43,1003.46
2013,09,28,03,44,1003.46
2013,09,28,03,45,1003.12
2013,09,28,03,46,1003.12
2013,09,28,03,47,1003.12
2013,09,28,03,48,1003.12
2013,09,28,03,49,1003.12
2013,09,28,03,50,1003.12
2013,09,28,03,51,1003.12
2013,09,28,03,52,1003.12
2013,09,28,03,53,1003.12
2013,09,28,03,54,1003.12
2013,09,28,03,55,1003.12
2013,09,28,03,56,1003.12
2013,09,28,03,57,1003.12
2013,09,28,03,58,1003.12
2013,09,28,03,59,1003.12
2013,09,28,04,00,1003.01
2013,09,28,04,01,1003.01
2013,09,28,04,02,1003.01
2013,09,28,04,03,1003.01
2013,09,28,04,04,1003.01
2013,09,28,04,05,1003.01
2013,09,28,04,06,1003.01
2013,09,28,04,07,1003.01
2013,09,28,04,08,1003.01
2013,09,28,04,09,1003.01
2013,09,28,04,10,1003.01
2013,09,28,04,11,1003.01
2013,09,28,04,12,1003.01
2013,09,28,04,13,1003.01
2013,09,28,04,14,1003.01
2013,09,28,04,15,1002.88
2013,09,28,04,16,1002.88
2013,09,28,04,17,1002.88
2013,09,28,04,18,1002.88
2013,09,28,04,19,1002.88
2013,09,28,04,20,1002.88
2013,09,28,04,21,1002.88
2013,09,28,04,22,1002.88
2013,09,28,04,23,1002.88
2013,09,28,04,24,1002.88
2013,09,28,04,25,1002.88
2013,09,28,04,26,1002.88
2013,09,28,04,27,1002.88
2013,09,28,04,28,1002.88
2013,09,28,04,29,1002.88
2013,09,28,04,30,1002.44
2013,09,28,04,31,1002.44
2013,09,28,04,32,1002.44
2013,09,28,04,33,1002.44
2013,09,28,04,34,1002.44
2013,09,28,04,35,1002.44
2013,09,28,04,36,1002.44
2013,09,28,04,37,1002.44
2013,09,28,04,38,1002.44
2013,09,28,04,39,1002.44
2013,09,28,04,40,1002.44
2013,09,28,04,41,1002.44
2013,09,28,04,42,1002.44
2013,09,28,04,43,1002.44
2013,09,28,04,44,1002.44
2013,09,28,04,45,1002.24
2013,09,28,04,46,1002.24
2013,09,28,04,47,1002.24
2013,09,28,04,48,1002.24
2013,09,28,04,49,1002.24
2013,09,28,04,50,1002.24
2013,09,28,04,51,1002.24
2013,09,28,04,52,1002.24
2013,09,28,04,53,1002.24
2013,09,28,04,54,1002.24
2013,09,28,04,55,1002.24
2013,09,28,04,56,1002.24
2013,09,28,04,57,1002.24
2013,09,28,04,58,1002.24
2013,09,28,04,59,1002.24
2013,09,28,05,00,1001.90
2013,09,28,05,01,1001.90
2013,09,28,05,02,1001.90
2013,09,28,05,03,1001.90
2013,09,28,05,04,1001.90
2013,09,28,05,05,1001.90
2013,09,28,05,06,1001.90
2013,09,28,05,07,1001.90
2013,09,28,05,08,1001.90
2013,09,28,05,09,1001.90
2013,09,28,05,10,1001.90
2013,09,28,05,11,1001.90
2013,09,28,05,12,1001.90
2013,09,28,05,13,1001.90
2013,09,28,05,14,1001.90
2013,09,28,05,15,1001.42
2013,09,28,05,16,1001.42
2013,09,28,05,17,1001.42
2013,09,28,05,18,1001.42
2013,09,28,05,19,1001.42
2013,09,28,05,20,1001.42
2013,09,28,05,21,1001.42
2013,09,28,05,22,1001.42
2013,09,28,05,23,1001.42
2013,09,28,05,24,1001.42
2013,09,28,05,25,1001.42
2013,09,28,05,26,1001.42
2013,09,28,05,27,1001.42
2013,09,28,05,28,1001.42
2013,09,28,05,29,1001.42
2013,09,28,05,30,1000.98
2013,09,28,05,31,1000.98
2013,09,28,05,32,1000.98
2013,09,28,05,33,1000.98
2013,09,28,05,34,1000.98
2013,09,28,05,35,1000.98
2013,09,28,05,36,1000.98
2013,09,28,05,37,1000.98
2013,09,28,05,38,1000.98
2013,09,28,05,39,1000.98
2013,09,28,05,40,1000.98
2013,09,28,05,41,1000.98
2013,09,28,05,42,1000.98
2013,09,28,05,43,1000.98
2013,09,28,05,44,1000.98
2013,09,28,05,45,1000.88
2013,09,28,05,46,1000.88
2013,09,28,05,47,1000.88
2013,09,28,05,48,1000.88
2013,09,28,05,49,1000.88
2013,09,28,05,50,1000.88
2013,09,28,05,51,1000.88
2013,09,28,05,52,1000.88
2013,09,28,05,53,1000.88
2013,09,28,05,54,1000.88
2013,09,28,05,55,1000.88
2013,09,28,05,56,1000.88
2013,09,28,05,57,1000.88
2013,09,28,05,58,1000.88
2013,09,28,05,59,1000.88
2013,09,28,06,00,1000.48
2013,09,28,06,01,1000.48
2013,09,28,06,02,1000.48
2013,09,28,06,03,1000.48
2013,09,28,06,04,1000.48
2013,09,28,06,05,1000.48
2013,09,28,06,06,1000.48
2013,09,28,06,07,1000.48
2013,09,28,06,08,1000.48
2013,09,28,06,09,1000.48
2013,09,28,06,10,1000.48
2013,09,28,06,11,1000.48
2013,09,28,06,12,1000.48
2013,09,28,06,13,1000.48
2013,09,28,06,14,1000.47
2013,09,28,06,15,1000.27
2013,09,28,06,16,1000.27
2013,09,28,06,17,1000.27
2013,09,28,06,18,1000.27
2013,09,28,06,19,1000.27
2013,09,28,06,20,1000.27
2013,09,28,06,21,1000.27
2013,09,28,06,22,1000.27
2013,09,28,06,23,1000.27
2013,09,28,06,24,1000.27
2013,09,28,06,25,1000.27
2013,09,28,06,26,1000.27
2013,09,28,06,27,1000.27
2013,09,28,06,28,1000.27
2013,09,28,06,29,1000.24
2013,09,28,06,30,999.76
2013,09,28,06,31,999.76
2013,09,28,06,32,999.76
2013,09,28,06,33,999.76
2013,09,28,06,34,999.76
2013,09,28,06,35,999.76
2013,09,28,06,36,999.76
2013,09,28,06,37,999.76
2013,09,28,06,38,999.76
2013,09,28,06,39,999.76
2013,09,28,06,40,999.76
2013,09,28,06,41,999.76
2013,09,28,06,42,999.76
2013,09,28,06,43,999.76
2013,09,28,06,44,999.76
2013,09,28,06,45,999.39
2013,09,28,06,46,999.39
2013,09,28,06,47,999.39
2013,09,28,06,48,999.39
2013,09,28,06,49,999.39
2013,09,28,06,50,999.39
2013,09,28,06,51,999.39
2013,09,28,06,52,999.39
2013,09,28,06,53,999.39
2013,09,28,06,54,999.39
2013,09,28,06,55,999.39
2013,09,28,06,56,999.39
2013,09,28,06,57,999.39
2013,09,28,06,58,999.39
2013,09,28,06,59,999.39
2013,09,28,07,00,998.88
2013,09,28,07,01,998.88
2013,09,28,07,02,998.88
2013,09,28,07,03,998.88
2013,09,28,07,04,998.88
2013,09,28,07,05,998.88
2013,09,28,07,06,998.88
2013,09,28,07,07,998.88
2013,09,28,07,08,998.88
2013,09,28,07,09,998.88
2013,09,28,07,10,998.88
2013,09,28,07,11,998.88
2013,09,28,07,12,998.88
2013,09,28,07,13,998.88
2013,09,28,07,14,998.88
2013,09,28,07,15,998.27
2013,09,28,07,16,998.27
2013,09,28,07,17,998.27
2013,09,28,07,18,998.27
2013,09,28,07,19,998.27
2013,09,28,07,20,998.27
2013,09,28,07,21,998.27
2013,09,28,07,22,998.27
2013,09,28,07,23,998.27
2013,09,28,07,24,998.27
2013,09,28,07,25,998.27
2013,09,28,07,26,998.27
2013,09,28,07,27,998.27
2013,09,28,07,28,998.27
2013,09,28,07,29,998.27
2013,09,28,07,30,997.83
2013,09,28,07,31,997.83
2013,09,28,07,32,997.83
2013,09,28,07,33,997.83
2013,09,28,07,34,997.83
2013,09,28,07,35,997.83
2013,09,28,07,36,997.83
2013,09,28,07,37,997.83
2013,09,28,07,38,997.83
2013,09,28,07,39,997.83
2013,09,28,07,40,997.83
2013,09,28,07,41,997.83
2013,09,28,07,42,997.83
2013,09,28,07,43,997.83
2013,09,28,07,44,997.83
2013,09,28,07,45,997.60
2013,09,28,07,46,997.60
2013,09,28,07,47,997.60
2013,09,28,07,48,997.60
2013,09,28,07,49,997.60
2013,09,28,07,50,997.60
2013,09,28,07,51,997.60
2013,09,28,07,52,997.60
2013,09,28,07,53,997.60
2013,09,28,07,54,997.60
2013,09,28,07,55,997.60
2013,09,28,07,56,997.60
2013,09,28,07,57,997.60
2013,09,28,07,58,997.60
2013,09,28,07,59,997.60
2013,09,28,08,00,997.19
2013,09,28,08,01,997.19
2013,09,28,08,02,997.19
2013,09,28,08,03,997.19
2013,09,28,08,04,997.19
2013,09,28,08,05,997.19
2013,09,28,08,06,997.19
2013,09,28,08,07,997.19
2013,09,28,08,08,997.19
2013,09,28,08,09,997.19
2013,09,28,08,10,997.19
2013,09,28,08,11,997.19
2013,09,28,08,12,997.19
2013,09,28,08,13,997.19
2013,09,28,08,14,997.19
2013,09,28,08,15,997.19
2013,09,28,08,16,997.19
2013,09,28,08,17,997.19
2013,09,28,08,18,997.19
2013,09,28,08,19,997.19
2013,09,28,08,20,997.19
2013,09,28,08,21,997.19
2013,09,28,08,22,997.19
2013,09,28,08,23,997.19
2013,09,28,08,24,997.19
2013,09,28,08,25,997.19
2013,09,28,08,26,997.19
2013,09,28,08,27,997.19
2013,09,28,08,28,997.19
2013,09,28,08,29,997.19
2013,09,28,08,30,996.65
2013,09,28,08,31,996.65
2013,09,28,08,32,996.65
2013,09,28,08,33,996.65
2013,09,28,08,34,996.65
2013,09,28,08,35,996.65
2013,09,28,08,36,996.65
2013,09,28,08,37,996.65
2013,09,28,08,38,996.65
2013,09,28,08,39,996.65
2013,09,28,08,40,996.65
2013,09,28,08,41,996.65
2013,09,28,08,42,996.65
2013,09,28,08,43,996.65
2013,09,28,08,44,996.65
2013,09,28,08,45,996.01
2013,09,28,08,46,996.01
2013,09,28,08,47,996.01
2013,09,28,08,48,996.01
2013,09,28,08,49,996.01
2013,09,28,08,50,996.01
2013,09,28,08,51,996.01
2013,09,28,08,52,996.01
2013,09,28,08,53,996.01
2013,09,28,08,54,996.01
2013,09,28,08,55,996.01
2013,09,28,08,56,996.01
2013,09,28,08,57,996.01
2013,09,28,08,58,996.01
2013,09,28,08,59,996.01
2013,09,28,09,00,995.70
2013,09,28,09,01,995.70
2013,09,28,09,02,995.70
2013,09,28,09,03,995.70
2013,09,28,09,04,995.70
2013,09,28,09,05,995.70
2013,09,28,09,06,995.70
2013,09,28,09,07,995.70
2013,09,28,09,08,995.70
2013,09,28,09,09,995.70
2013,09,28,09,10,995.70
2013,09,28,09,11,995.70
2013,09,28,09,12,995.70
2013,09,28,09,13,995.70
2013,09,28,09,14,995.70
2013,09,28,09,15,996.07
2013,09,28,09,16,996.07
2013,09,28,09,17,996.07
2013,09,28,09,18,996.07
2013,09,28,09,19,996.07
2013,09,28,09,20,996.07
2013,09,28,09,21,996.07
2013,09,28,09,22,996.07
2013,09,28,09,23,996.07
2013,09,28,09,24,996.07
2013,09,28,09,25,996.07
2013,09,28,09,26,996.07
2013,09,28,09,27,996.07
2013,09,28,09,28,996.07
2013,09,28,09,29,996.07
2013,09,28,09,30,995.63
2013,09,28,09,31,995.63
2013,09,28,09,32,995.63
2013,09,28,09,33,995.63
2013,09,28,09,34,995.63
2013,09,28,09,35,995.63
2013,09,28,09,36,995.63
2013,09,28,09,37,995.63
2013,09,28,09,38,995.63
2013,09,28,09,39,995.63
2013,09,28,09,40,995.63
2013,09,28,09,41,995.63
2013,09,28,09,42,995.63
2013,09,28,09,43,995.63
2013,09,28,09,44,995.63
2013,09,28,09,45,995.31
2013,09,28,09,46,995.29
2013,09,28,09,47,995.29
2013,09,28,09,48,995.29
2013,09,28,09,49,995.29
2013,09,28,09,50,995.29
2013,09,28,09,51,995.29
2013,09,28,09,52,995.29
2013,09,28,09,53,995.29
2013,09,28,09,54,995.29
2013,09,28,09,55,995.29
2013,09,28,09,56,995.29
2013,09,28,09,57,995.29
2013,09,28,09,58,995.29
2013,09,28,09,59,995.29
2013,09,28,10,00,995.02
2013,09,28,10,01,995.02
2013,09,28,10,02,995.02
2013,09,28,10,03,995.02
2013,09,28,10,04,995.02
2013,09,28,10,05,995.02
2013,09,28,10,06,995.02
2013,09,28,10,07,995.02
2013,09,28,10,08,995.02
2013,09,28,10,09,995.02
2013,09,28,10,10,995.02
2013,09,28,10,11,995.02
2013,09,28,10,12,995.02
2013,09,28,10,13,995.02
2013,09,28,10,14,995.02
2013,09,28,10,15,994.64
2013,09,28,10,16,994.62
2013,09,28,10,17,994.62
2013,09,28,10,18,994.62
2013,09,28,10,19,994.62
2013,09,28,10,20,994.62
2013,09,28,10,21,994.62
2013,09,28,10,22,994.62
2013,09,28,10,23,994.62
2013,09,28,10,24,994.62
2013,09,28,10,25,994.62
2013,09,28,10,26,994.62
2013,09,28,10,27,994.62
2013,09,28,10,28,994.62
2013,09,28,10,29,994.62
2013,09,28,10,30,994.24
2013,09,28,10,31,994.24
2013,09,28,10,32,994.24
2013,09,28,10,33,994.24
2013,09,28,10,34,994.24
2013,09,28,10,35,994.24
2013,09,28,10,36,994.24
2013,09,28,10,37,994.24
2013,09,28,10,38,994.24
2013,09,28,10,39,994.24
2013,09,28,10,40,994.24
2013,09,28,10,41,994.24
2013,09,28,10,42,994.24
2013,09,28,10,43,994.24
2013,09,28,10,44,994.24
2013,09,28,10,45,994.01
2013,09,28,10,46,994.01
2013,09,28,10,47,994.01
2013,09,28,10,48,994.01
2013,09,28,10,49,994.01
2013,09,28,10,50,994.01
2013,09,28,10,51,994.01
2013,09,28,10,52,994.01
2013,09,28,10,53,994.01
2013,09,28,10,54,994.01
2013,09,28,10,55,994.01
2013,09,28,10,56,994.01
2013,09,28,10,57,994.01
2013,09,28,10,58,994.01
2013,09,28,10,59,994.01
2013,09,28,11,00,993.80
2013,09,28,11,01,993.80
2013,09,28,11,02,993.80
2013,09,28,11,03,993.80
2013,09,28,11,04,993.80
2013,09,28,11,05,993.80
2013,09,28,11,06,993.80
2013,09,28,11,07,993.80
2013,09,28,11,08,993.80
2013,09,28,11,09,993.80
2013,09,28,11,10,993.80
2013,09,28,11,11,993.80
2013,09,28,11,12,993.80
2013,09,28,11,13,993.80
2013,09,28,11,14,993.80
2013,09,28,11,15,993.50
2013,09,28,11,16,993.50
2013,09,28,11,17,993.50
2013,09,28,11,18,993.50
2013,09,28,11,19,993.50
2013,09,28,11,20,993.50
2013,09,28,11,21,993.50
2013,09,28,11,22,993.50
2013,09,28,11,23,993.50
2013,09,28,11,24,993.50
2013,09,28,11,25,993.50
2013,09,28,11,26,993.50
2013,09,28,11,27,993.50
2013,09,28,11,28,993.50
2013,09,28,11,29,993.50
2013,09,28,11,30,993.19
2013,09,28,11,31,993.19
2013,09,28,11,32,993.19
2013,09,28,11,33,993.19
2013,09,28,11,34,993.19
2013,09,28,11,35,993.19
2013,09,28,11,36,993.19
2013,09,28,11,37,993.19
2013,09,28,11,38,993.19
2013,09,28,11,39,993.19
2013,09,28,11,40,993.19
2013,09,28,11,41,993.19
2013,09,28,11,42,993.19
2013,09,28,11,43,993.19
2013,09,28,11,44,993.19
2013,09,28,11,45,992.92
2013,09,28,11,46,992.92
2013,09,28,11,47,992.92
2013,09,28,11,48,992.92
2013,09,28,11,49,992.92
2013,09,28,11,50,992.92
2013,09,28,11,51,992.92
2013,09,28,11,52,992.92
2013,09,28,11,53,992.92
2013,09,28,11,54,992.92
2013,09,28,11,55,992.92
2013,09,28,11,56,992.92
2013,09,28,11,57,992.92
2013,09,28,11,58,992.92
2013,09,28,11,59,992.92
2013,09,28,12,00,992.45
2013,09,28,12,01,992.45
2013,09,28,12,02,992.45
2013,09,28,12,03,992.45
2013,09,28,12,04,992.45
2013,09,28,12,05,992.45
2013,09,28,12,06,992.45
2013,09,28,12,07,992.45
2013,09,28,12,08,992.45
2013,09,28,12,09,992.45
2013,09,28,12,10,992.45
2013,09,28,12,11,992.45
2013,09,28,12,12,992.45
2013,09,28,12,13,992.45
2013,09,28,12,14,992.45
2013,09,28,12,15,992.21
2013,09,28,12,16,992.21
2013,09,28,12,17,992.21
2013,09,28,12,18,992.21
2013,09,28,12,19,992.21
2013,09,28,12,20,992.21
2013,09,28,12,21,992.21
2013,09,28,12,22,992.21
2013,09,28,12,23,992.21
2013,09,28,12,24,992.21
2013,09,28,12,25,992.21
2013,09,28,12,26,992.21
2013,09,28,12,27,992.21
2013,09,28,12,28,992.21
2013,09,28,12,29,992.21
2013,09,28,12,30,991.76
2013,09,28,12,31,991.74
2013,09,28,12,32,991.74
2013,09,28,12,33,991.74
2013,09,28,12,34,991.74
2013,09,28,12,35,991.74
2013,09,28,12,36,991.74
2013,09,28,12,37,991.74
2013,09,28,12,38,991.74
2013,09,28,12,39,991.74
2013,09,28,12,40,991.74
2013,09,28,12,41,991.74
2013,09,28,12,42,991.74
2013,09,28,12,43,991.74
2013,09,28,12,44,991.74
2013,09,28,12,45,991.13
2013,09,28,12,46,991.13
2013,09,28,12,47,991.13
2013,09,28,12,48,991.13
2013,09,28,12,49,991.13
2013,09,28,12,50,991.13
2013,09,28,12,51,991.13
2013,09,28,12,52,991.13
2013,09,28,12,53,991.13
2013,09,28,12,54,991.13
2013,09,28,12,55,991.13
2013,09,28,12,56,991.13
2013,09,28,12,57,991.13
2013,09,28,12,58,991.13
2013,09,28,12,59,991.13
2013,09,28,13,00,990.59
2013,09,28,13,01,990.59
2013,09,28,13,02,990.59
2013,09,28,13,03,990.59
2013,09,28,13,04,990.59
2013,09,28,13,05,990.59
2013,09,28,13,06,990.59
2013,09,28,13,07,990.59
2013,09,28,13,08,990.59
2013,09,28,13,09,990.59
2013,09,28,13,10,990.59
2013,09,28,13,11,990.59
2013,09,28,13,12,990.59
2013,09,28,13,13,990.59
2013,09,28,13,14,990.59
2013,09,28,13,15,991.84
2013,09,28,13,16,991.91
2013,09,28,13,17,991.91
2013,09,28,13,18,991.91
2013,09,28,13,19,991.91
2013,09,28,13,20,991.91
2013,09,28,13,21,991.91
2013,09,28,13,22,991.91
2013,09,28,13,23,991.91
2013,09,28,13,24,991.91
2013,09,28,13,25,991.91
2013,09,28,13,26,991.91
2013,09,28,13,27,991.91
2013,09,28,13,28,991.91
2013,09,28,13,29,991.91
2013,09,28,13,30,992.01
2013,09,28,13,31,992.01
2013,09,28,13,32,992.01
2013,09,28,13,33,992.01
2013,09,28,13,34,992.01
2013,09,28,13,35,992.01
2013,09,28,13,36,992.01
2013,09,28,13,37,992.01
2013,09,28,13,38,992.01
2013,09,28,13,39,992.01
2013,09,28,13,40,992.01
2013,09,28,13,41,992.01
2013,09,28,13,42,992.01
2013,09,28,13,43,992.01
2013,09,28,13,44,992.01
2013,09,28,13,45,992.75
2013,09,28,13,46,992.79
2013,09,28,13,47,992.79
2013,09,28,13,48,992.79
2013,09,28,13,49,992.79
2013,09,28,13,50,992.79
2013,09,28,13,51,992.79
2013,09,28,13,52,992.79
2013,09,28,13,53,992.79
2013,09,28,13,54,992.79
2013,09,28,13,55,992.79
2013,09,28,13,56,992.79
2013,09,28,13,57,992.79
2013,09,28,13,58,992.79
2013,09,28,13,59,992.79
2013,09,28,14,00,991.98
2013,09,28,14,01,991.94
2013,09,28,14,02,991.94
2013,09,28,14,03,991.94
2013,09,28,14,04,991.94
2013,09,28,14,05,991.94
2013,09,28,14,06,991.94
2013,09,28,14,07,991.94
2013,09,28,14,08,991.94
2013,09,28,14,09,991.94
2013,09,28,14,10,991.94
2013,09,28,14,11,991.94
2013,09,28,14,12,991.94
2013,09,28,14,13,991.94
2013,09,28,14,14,991.94
2013,09,28,14,15,990.91
2013,09,28,14,16,990.86
2013,09,28,14,17,990.86
2013,09,28,14,18,990.86
2013,09,28,14,19,990.86
2013,09,28,14,20,990.86
2013,09,28,14,21,990.86
2013,09,28,14,22,990.86
2013,09,28,14,23,990.86
2013,09,28,14,24,990.86
2013,09,28,14,25,990.86
2013,09,28,14,26,990.86
2013,09,28,14,27,990.86
2013,09,28,14,28,990.86
2013,09,28,14,29,990.86
2013,09,28,14,30,989.33
2013,09,28,14,31,989.33
2013,09,28,14,32,989.33
2013,09,28,14,33,989.33
2013,09,28,14,34,989.33
2013,09,28,14,35,989.33
2013,09,28,14,36,989.33
2013,09,28,14,37,989.33
2013,09,28,14,38,989.33
2013,09,28,14,39,989.33
2013,09,28,14,40,989.33
2013,09,28,14,41,989.33
2013,09,28,14,42,989.33
2013,09,28,14,43,989.33
2013,09,28,14,44,989.33
2013,09,28,14,45,989.30
2013,09,28,14,46,989.30
2013,09,28,14,47,989.30
2013,09,28,14,48,989.30
2013,09,28,14,49,989.30
2013,09,28,14,50,989.30
2013,09,28,14,51,989.30
2013,09,28,14,52,989.30
2013,09,28,14,53,989.30
2013,09,28,14,54,989.30
2013,09,28,14,55,989.30
2013,09,28,14,56,989.30
2013,09,28,14,57,989.30
2013,09,28,14,58,989.30
2013,09,28,14,59,989.30
2013,09,28,15,00,989.56
2013,09,28,15,01,989.57
2013,09,28,15,02,989.57
2013,09,28,15,03,989.57
2013,09,28,15,04,989.57
2013,09,28,15,05,989.57
2013,09,28,15,06,989.57
2013,09,28,15,07,989.57
2013,09,28,15,08,989.57
2013,09,28,15,09,989.57
2013,09,28,15,10,989.57
2013,09,28,15,11,989.57
2013,09,28,15,12,989.57
2013,09,28,15,13,989.57
2013,09,28,15,14,989.57
2013,09,28,15,15,989.84
2013,09,28,15,16,989.84
2013,09,28,15,17,989.84
2013,09,28,15,18,989.84
2013,09,28,15,19,989.84
2013,09,28,15,20,989.84
2013,09,28,15,21,989.84
2013,09,28,15,22,989.84
2013,09,28,15,23,989.84
2013,09,28,15,24,989.84
2013,09,28,15,25,989.84
2013,09,28,15,26,989.84
2013,09,28,15,27,989.84
2013,09,28,15,28,989.84
2013,09,28,15,29,989.84
2013,09,28,15,30,989.91
2013,09,28,15,31,989.91
2013,09,28,15,32,989.91
2013,09,28,15,33,989.91
2013,09,28,15,34,989.91
2013,09,28,15,35,989.91
2013,09,28,15,36,989.91
2013,09,28,15,37,989.91
2013,09,28,15,38,989.91
2013,09,28,15,39,989.91
2013,09,28,15,40,989.91
2013,09,28,15,41,989.91
2013,09,28,15,42,989.91
2013,09,28,15,43,989.91
2013,09,28,15,44,989.91
2013,09,28,15,45,990.33
2013,09,28,15,46,990.35
2013,09,28,15,47,990.35
2013,09,28,15,48,990.35
2013,09,28,15,49,990.35
2013,09,28,15,50,990.35
2013,09,28,15,51,990.35
2013,09,28,15,52,990.35
2013,09,28,15,53,990.35
2013,09,28,15,54,990.35
2013,09,28,15,55,990.35
2013,09,28,15,56,990.35
2013,09,28,15,57,990.35
2013,09,28,15,58,990.35
2013,09,28,15,59,990.35
2013,09,28,16,00,990.11
2013,09,28,16,01,990.11
2013,09,28,16,02,990.11
2013,09,28,16,03,990.11
2013,09,28,16,04,990.11
2013,09,28,16,05,990.11
2013,09,28,16,06,990.11
2013,09,28,16,07,990.11
2013,09,28,16,08,990.11
2013,09,28,16,09,990.11
2013,09,28,16,10,990.11
2013,09,28,16,11,990.11
2013,09,28,16,12,990.11
2013,09,28,16,13,990.11
2013,09,28,16,14,990.11
2013,09,28,16,15,990.78
2013,09,28,16,16,990.82
2013,09,28,16,17,990.82
2013,09,28,16,18,990.82
2013,09,28,16,19,990.82